QPF
0.00 0.00 0.00 0.00 0.00 0.00 0.00 0.00 0.00 0.00 0.00 0.00 0.00 0.00 0.00 0.00 0.00 0.00 0.00 0.00 0.00 0.00 0.00 0.00 0.00 0.00 0.00 0.00 0.00 0.00 0.00 0.00 0.00 0.00 0.00 0.00 0.00 0.00 0.00 0.00 0.01 0.01 0.01 0.01
0.00 0.00 0.00 0.00 0.00 0.00 0.00 0.00 0.00 0.00 0.00 0.00 0.00 0.00 0.00 0.00 0.00 0.00 0.00 0.00 0.00 0.00 0.00 0.00 0.00 0.00 0.00 0.00 0.00 0.00 0.00 0.00 0.00 0.00 0.00 0.00 0.00 0.00 0.00 0.00 0.00 0.00 0.00 0.00
0.00 0.00 0.00 0.00 0.00 0.00 0.00 0.00 0.00 0.00 0.00 0.00 0.00 0.00 0.00 0.00 0.00 0.00 0.00 0.00 0.00 0.00 0.00 0.00 0.00 0.00 0.00 0.00 0.00 0.00 0.00 0.00 0.00 0.00 0.00 0.00 0.00 0.00 0.00 0.00 0.00 0.00 0.00 0.00
0.00 0.00 0.00 0.00 0.00 0.00 0.00 0.00 0.00 0.00 0.00 0.00 0.00 0.00 0.00 0.00 0.00 0.00 0.00 0.00 0.00 0.00 0.00 0.00 0.00 0.00 0.00 0.00 0.00 0.00 0.00 0.00 0.00 0.00 0.00 0.00 0.00 0.00 0.00 0.00 0.00 0.00 0.00 0.00
0.00 0.00 0.00 0.00 0.00 0.00 0.00 0.00 0.00 0.00 0.00 0.00 0.00 0.00 0.00 0.00 0.00 0.00 0.00 0.00 0.00 0.00 0.00 0.00 0.00 0.00 0.00 0.00 0.00 0.00 0.00 0.00 0.00 0.00 0.00 0.00 0.00 0.00 0.00 0.00 0.00 0.00 0.00 0.00
0.00 0.00 0.00 0.00 0.00 0.00 0.00 0.00 0.00 0.00 0.00 0.00 0.00 0.00 0.00 0.00 0.00 0.00 0.00 0.00 0.00 0.00 0.00 0.00 0.00 0.00 0.00 0.00 0.00 0.00 0.00 0.00 0.00 0.00 0.00 0.00 0.00 0.00 0.00 0.00 0.00 0.00 0.00 0.00
0.00 0.00 0.00 0.00 0.00 0.00 0.00 0.00 0.00 0.00 0.00 0.00 0.00 0.00 0.00 0.00 0.00 0.00 0.00 0.00 0.00 0.00 0.00 0.00 0.00 0.00 0.00 0.00 0.00 0.00 0.00 0.00 0.00 0.00 0.00 0.00 0.00 0.00 0.00 0.00 0.00 0.00 0.00 0.00
0.00 0.00 0.00 0.00 0.00 0.00 0.00 0.00 0.00 0.00 0.00 0.00 0.00 0.00 0.00 0.00 0.00 0.00 0.00 0.00 0.00 0.00 0.00 0.00 0.00 0.00 0.00 0.00 0.00 0.00 0.00 0.00 0.00 0.00 0.00 0.00 0.00 0.00 0.00 0.00 0.00 0.00 0.00 0.00
0.00 0.00 0.00 0.00 0.00 0.00 0.00 0.00 0.00 0.00 0.00 0.00 0.00 0.00 0.00 0.00 0.00 0.00 0.00 0.00 0.00 0.00 0.00 0.00 0.00 0.00 0.00 0.00 0.00 0.00 0.00 0.00 0.00 0.00 0.00 0.00 0.00 0.00 0.00 0.00 0.00 0.00 0.00 0.00
0.00 0.00 0.00 0.00 0.00 0.00 0.00 0.00 0.00 0.00 0.00 0.00 0.00 0.00 0.00 0.00 0.00 0.00 0.00 0.00 0.00 0.00 0.00 0.00 0.00 0.00 0.00 0.00 0.00 0.00 0.00 0.00 0.00 0.00 0.00 0.00 0.00 0.00 0.00 0.00 0.00 0.00 0.00 0.00
0.00 0.00 0.00 0.00 0.00 0.00 0.00 0.00 0.00 0.00 0.00 0.00 0.00 0.00 0.00 0.00 0.00 0.00 0.00 0.00 0.00 0.00 0.00 0.00 0.00 0.00 0.00 0.00 0.00 0.00 0.00 0.00 0.00 0.00 0.00 0.00 0.00 0.00 0.00 0.00 0.00 0.00 0.00 0.00
0.00 0.00 0.00 0.00 0.00 0.00 0.00 0.00 0.00 0.00 0.00 0.00 0.00 0.00 0.00 0.00 0.00 0.00 0.00 0.00 0.00 0.00 0.00 0.00 0.00 0.00 0.00 0.00 0.00 0.00 0.00 0.00 0.00 0.00 0.00 0.00 0.00 0.00 0.00 0.00 0.00 0.00 0.00 0.00
0.00 0.00 0.00 0.00 0.00 0.00 0.00 0.00 0.00 0.00 0.00 0.00 0.00 0.00 0.00 0.00 0.00 0.00 0.00 0.00 0.00 0.00 0.00 0.00 0.00 0.00 0.00 0.00 0.00 0.00 0.00 0.00 0.00 0.00 0.00 0.00 0.00 0.00 0.00 0.00 0.00 0.00 0.00 0.00
0.00 0.00 0.00 0.00 0.00 0.00 0.00 0.00 0.00 0.00 0.00 0.00 0.00 0.00 0.00 0.00 0.00 0.00 0.00 0.00 0.00 0.00 0.00 0.00 0.00 0.00 0.00 0.00 0.00 0.00 0.00 0.00 0.00 0.00 0.00 0.00 0.00 0.00 0.00 0.00 0.00 0.00 0.00 0.00
0.00 0.00 0.00 0.00 0.00 0.00 0.00 0.00 0.00 0.00 0.00 0.00 0.00 0.00 0.00 0.00 0.00 0.00 0.00 0.00 0.00 0.00 0.00 0.00 0.00 0.00 0.00 0.00 0.00 0.00 0.00 0.00 0.00 0.00 0.00 0.00 0.00 0.00 0.00 0.00 0.00 0.00 0.00 0.00
0.01 0.01 0.00 0.01 0.00 0.00 0.00 0.00 0.00 0.00 0.00 0.00 0.00 0.00 0.00 0.00 0.00 0.00 0.00 0.00 0.00 0.00 0.00 0.00 0.00 0.00 0.00 0.00 0.00 0.00 0.00 0.00 0.00 0.00 0.00 0.00 0.00 0.00 0.00 0.00 0.00 0.00 0.00 0.00
0.02 0.03 0.03 0.02 0.00 0.01 0.01 0.00 0.00 0.00 0.00 0.00 0.00 0.00 0.00 0.00 0.00 0.00 0.00 0.00 0.00 0.00 0.00 0.00 0.00 0.00 0.00 0.00 0.00 0.00 0.00 0.00 0.00 0.00 0.00 0.00 0.00 0.00 0.00 0.00 0.00 0.00 0.00 0.00
0.03 0.04 0.06 0.05 0.04 0.04 0.01 0.00 0.00 0.00 0.00 0.00 0.00 0.00 0.00 0.00 0.00 0.00 0.00 0.00 0.00 0.00 0.00 0.00 0.00 0.00 0.00 0.00 0.00 0.00 0.00 0.00 0.00 0.00 0.00 0.00 0.00 0.00 0.00 0.00 0.00 0.00 0.00 0.00
0.02 0.02 0.05 0.06 0.05 0.02 0.00 0.00 0.00 0.00 0.00 0.00 0.00 0.00 0.00 0.00 0.00 0.00 0.00 0.00 0.00 0.00 0.00 0.00 0.00 0.00 0.00 0.00 0.00 0.00 0.00 0.00 0.00 0.00 0.00 0.00 0.00 0.00 0.00 0.00 0.00 0.00 0.00 0.00
0.01 0.02 0.05 0.06 0.04 0.02 0.00 0.00 0.00 0.00 0.00 0.00 0.00 0.00 0.00 0.00 0.00 0.00 0.00 0.00 0.00 0.00 0.00 0.00 0.00 0.00 0.00 0.00 0.00 0.00 0.00 0.00 0.00 0.00 0.00 0.00 0.00 0.00 0.00 0.00 0.00 0.00 0.00 0.00
0.02 0.03 0.05 0.03 0.03 0.01 0.00 0.00 0.00 0.00 0.00 0.00 0.00 0.00 0.00 0.00 0.00 0.00 0.00 0.00 0.00 0.00 0.00 0.00 0.00 0.00 0.00 0.00 0.00 0.00 0.00 0.00 0.00 0.00 0.00 0.00 0.00 0.00 0.00 0.00 0.00 0.00 0.00 0.00
0.00 0.01 0.01 0.01 0.02 0.01 0.00 0.00 0.00 0.00 0.00 0.00 0.00 0.00 0.00 0.00 0.00 0.00 0.00 0.00 0.00 0.00 0.00 0.00 0.00 0.00 0.00 0.00 0.00 0.00 0.00 0.00 0.00 0.00 0.00 0.00 0.00 0.00 0.00 0.00 0.00 0.00 0.00 0.00
0.00 0.00 0.00 0.00 0.00 0.00 0.00 0.00 0.00 0.00 0.00 0.00 0.00 0.00 0.00 0.00 0.00 0.00 0.00 0.00 0.00 0.00 0.00 0.00 0.00 0.00 0.00 0.00 0.00 0.00 0.00 0.00 0.00 0.00 0.00 0.00 0.00 0.00 0.00 0.00 0.00 0.00 0.00 0.00
0.00 0.00 0.00 0.00 0.00 0.00 0.00 0.00 0.00 0.00 0.00 0.00 0.00 0.00 0.00 0.00 0.00 0.00 0.00 0.00 0.00 0.00 0.00 0.00 0.00 0.00 0.00 0.00 0.00 0.00 0.00 0.00 0.00 0.00 0.00 0.00 0.00 0.00 0.00 0.00 0.00 0.00 0.00 0.00
0.00 0.00 0.00 0.00 0.00 0.00 0.00 0.00 0.00 0.00 0.00 0.00 0.00 0.00 0.00 0.00 0.00 0.00 0.00 0.00 0.00 0.00 0.00 0.00 0.00 0.00 0.00 0.00 0.00 0.00 0.00 0.00 0.00 0.00 0.00 0.00 0.00 0.00 0.00 0.00 0.00 0.00 0.00 0.00
0.00 0.00 0.00 0.00 0.00 0.00 0.00 0.00 0.00 0.00 0.00 0.00 0.00 0.00 0.00 0.00 0.00 0.00 0.00 0.00 0.00 0.00 0.00 0.00 0.00 0.00 0.00 0.00 0.00 0.00 0.00 0.00 0.00 0.00 0.00 0.00 0.00 0.00 0.00 0.00 0.00 0.00 0.00 0.00
MSLP
1019.21 1019.82 1020.38 1020.86 1021.23 1021.45 1021.51 1021.44 1021.28 1021.09 1020.93 1020.88 1021.00 1021.31 1021.83 1022.52 1023.33 1024.19 1025.01 1025.71 1026.24 1026.54 1026.60 1026.41 1026.02 1025.47 1024.82 1024.13 1023.46 1022.87 1022.40 1022.10 1021.96 1021.99 1022.16 1022.43 1022.75 1023.08 1023.35 1023.55 1023.64 1023.65 1023.58 1023.49
1019.34 1019.83 1020.29 1020.69 1021.01 1021.23 1021.34 1021.36 1021.31 1021.24 1021.19 1021.23 1021.39 1021.71 1022.21 1022.86 1023.63 1024.46 1025.26 1025.98 1026.54 1026.90 1027.03 1026.93 1026.61 1026.14 1025.55 1024.91 1024.30 1023.76 1023.36 1023.13 1023.07 1023.17 1023.40 1023.72 1024.09 1024.43 1024.71 1024.89 1024.96 1024.95 1024.85 1024.73
1019.35 1019.70 1020.03 1020.34 1020.61 1020.84 1021.02 1021.14 1021.21 1021.26 1021.31 1021.41 1021.61 1021.93 1022.39 1022.99 1023.71 1024.50 1025.31 1026.05 1026.68 1027.13 1027.37 1027.38 1027.18 1026.81 1026.31 1025.76 1025.21 1024.75 1024.41 1024.23 1024.22 1024.37 1024.65 1025.00 1025.38 1025.72 1026.00 1026.17 1026.23 1026.19 1026.08 1025.94
1019.25 1019.45 1019.65 1019.88 1020.13 1020.39 1020.64 1020.86 1021.05 1021.21 1021.35 1021.51 1021.71 1021.99 1022.40 1022.93 1023.60 1024.35 1025.15 1025.94 1026.64 1027.20 1027.57 1027.73 1027.67 1027.43 1027.05 1026.60 1026.13 1025.73 1025.45 1025.31 1025.34 1025.51 1025.79 1026.15 1026.52 1026.86 1027.11 1027.27 1027.32 1027.28 1027.16 1027.01
1019.04 1019.11 1019.21 1019.39 1019.63 1019.94 1020.28 1020.62 1020.93 1021.18 1021.39 1021.57 1021.75 1021.98 1022.31 1022.76 1023.35 1024.06 1024.85 1025.67 1026.45 1027.13 1027.64 1027.95 1028.05 1027.95 1027.70 1027.35 1026.98 1026.64 1026.40 1026.29 1026.33 1026.50 1026.77 1027.10 1027.44 1027.75 1027.99 1028.13 1028.17 1028.13 1028.03 1027.89
1018.70 1018.67 1018.73 1018.90 1019.19 1019.57 1020.02 1020.48 1020.89 1021.23 1021.48 1021.66 1021.80 1021.96 1022.19 1022.55 1023.05 1023.71 1024.48 1025.32 1026.17 1026.95 1027.59 1028.04 1028.28 1028.33 1028.20 1027.96 1027.68 1027.40 1027.20 1027.11 1027.14 1027.29 1027.53 1027.82 1028.12 1028.40 1028.61 1028.74 1028.78 1028.76 1028.68 1028.57
1018.21 1018.15 1018.21 1018.43 1018.80 1019.30 1019.87 1020.44 1020.95 1021.35 1021.63 1021.79 1021.88 1021.96 1022.09 1022.34 1022.76 1023.35 1024.10 1024.95 1025.84 1026.70 1027.43 1028.00 1028.37 1028.54 1028.53 1028.40 1028.19 1027.98 1027.82 1027.74 1027.76 1027.88 1028.08 1028.33 1028.59 1028.82 1029.00 1029.13 1029.18 1029.18 1029.14 1029.07
1017.55 1017.53 1017.66 1017.98 1018.47 1019.10 1019.79 1020.47 1021.07 1021.51 1021.80 1021.93 1021.96 1021.95 1021.99 1022.16 1022.50 1023.03 1023.74 1024.59 1025.50 1026.40 1027.21 1027.86 1028.33 1028.59 1028.68 1028.63 1028.51 1028.35 1028.23 1028.17 1028.19 1028.29 1028.46 1028.67 1028.88 1029.08 1029.25 1029.37 1029.44 1029.47 1029.46 1029.43
1016.75 1016.82 1017.07 1017.53 1018.17 1018.93 1019.74 1020.50 1021.15 1021.62 1021.89 1021.98 1021.96 1021.89 1021.86 1021.96 1022.24 1022.73 1023.42 1024.25 1025.16 1026.08 1026.92 1027.63 1028.15 1028.48 1028.65 1028.68 1028.62 1028.53 1028.46 1028.43 1028.46 1028.56 1028.71 1028.89 1029.07 1029.25 1029.40 1029.52 1029.61 1029.66 1029.69 1029.70
1015.87 1016.08 1016.48 1017.09 1017.86 1018.74 1019.63 1020.45 1021.11 1021.56 1021.81 1021.86 1021.79 1021.68 1021.62 1021.69 1021.95 1022.42 1023.08 1023.90 1024.81 1025.72 1026.57 1027.28 1027.84 1028.22 1028.44 1028.53 1028.55 1028.53 1028.51 1028.53 1028.60 1028.71 1028.87 1029.04 1029.21 1029.38 1029.52 1029.64 1029.74 1029.81 1029.86 1029.89
1015.02 1015.37 1015.93 1016.67 1017.56 1018.51 1019.43 1020.24 1020.87 1021.28 1021.48 1021.49 1021.39 1021.26 1021.20 1021.28 1021.55 1022.03 1022.70 1023.51 1024.41 1025.30 1026.13 1026.83 1027.39 1027.79 1028.05 1028.21 1028.29 1028.35 1028.41 1028.50 1028.62 1028.78 1028.95 1029.13 1029.31 1029.47 1029.61 1029.73 1029.83 1029.91 1029.98 1030.01
1014.30 1014.80 1015.49 1016.33 1017.27 1018.23 1019.13 1019.89 1020.44 1020.77 1020.90 1020.87 1020.75 1020.63 1020.60 1020.73 1021.04 1021.56 1022.25 1023.06 1023.94 1024.80 1025.60 1026.27 1026.82 1027.23 1027.52 1027.73 1027.89 1028.03 1028.18 1028.35 1028.54 1028.75 1028.96 1029.16 1029.35 1029.52 1029.67 1029.79 1029.90 1029.98 1030.04 1030.07
1013.82 1014.44 1015.22 1016.10 1017.04 1017.95 1018.76 1019.41 1019.84 1020.07 1020.13 1020.06 1019.94 1019.86 1019.89 1020.08 1020.46 1021.03 1021.75 1022.56 1023.41 1024.23 1024.98 1025.62 1026.14 1026.54 1026.86 1027.12 1027.35 1027.58 1027.82 1028.07 1028.35 1028.62 1028.88 1029.12 1029.34 1029.52 1029.67 1029.80 1029.91 1029.99 1030.05 1030.07
1013.63 1014.32 1015.13 1016.01 1016.88 1017.69 1018.37 1018.87 1019.18 1019.30 1019.28 1019.18 1019.08 1019.05 1019.16 1019.43 1019.89 1020.50 1021.24 1022.04 1022.86 1023.63 1024.31 1024.90 1025.38 1025.78 1026.11 1026.42 1026.72 1027.03 1027.36 1027.70 1028.05 1028.39 1028.71 1028.99 1029.24 1029.44 1029.62 1029.76 1029.88 1029.97 1030.03 1030.05
1013.71 1014.43 1015.22 1016.04 1016.81 1017.48 1018.01 1018.35 1018.53 1018.55 1018.48 1018.39 1018.32 1018.36 1018.55 1018.91 1019.43 1020.08 1020.82 1021.59 1022.34 1023.04 1023.65 1024.16 1024.60 1024.98 1025.33 1025.67 1026.03 1026.42 1026.83 1027.26 1027.68 1028.09 1028.46 1028.79 1029.07 1029.31 1029.51 1029.68 1029.83 1029.94 1030.02 1030.04
1013.99 1014.70 1015.43 1016.15 1016.79 1017.31 1017.69 1017.91 1017.98 1017.94 1017.86 1017.79 1017.79 1017.91 1018.18 1018.61 1019.17 1019.83 1020.54 1021.25 1021.92 1022.51 1023.03 1023.47 1023.85 1024.21 1024.56 1024.94 1025.35 1025.80 1026.29 1026.79 1027.28 1027.74 1028.17 1028.54 1028.87 1029.15 1029.40 1029.61 1029.80 1029.95 1030.05 1030.10
1014.38 1015.03 1015.68 1016.28 1016.79 1017.18 1017.43 1017.55 1017.57 1017.52 1017.47 1017.46 1017.55 1017.76 1018.11 1018.59 1019.17 1019.80 1020.44 1021.06 1021.61 1022.09 1022.50 1022.85 1023.17 1023.50 1023.86 1024.26 1024.72 1025.23 1025.78 1026.34 1026.89 1027.41 1027.89 1028.32 1028.69 1029.03 1029.33 1029.60 1029.83 1030.02 1030.16 1030.23
1014.77 1015.35 1015.89 1016.37 1016.76 1017.04 1017.21 1017.28 1017.30 1017.29 1017.32 1017.41 1017.60 1017.90 1018.32 1018.82 1019.38 1019.95 1020.50 1020.99 1021.41 1021.76 1022.05 1022.31 1022.58 1022.88 1023.24 1023.68 1024.19 1024.75 1025.36 1025.97 1026.58 1027.15 1027.68 1028.16 1028.59 1028.98 1029.34 1029.66 1029.94 1030.17 1030.34 1030.41
1015.10 1015.58 1016.02 1016.38 1016.67 1016.87 1017.00 1017.07 1017.13 1017.21 1017.33 1017.54 1017.83 1018.22 1018.68 1019.19 1019.71 1020.19 1020.62 1020.97 1021.25 1021.47 1021.65 1021.83 1022.05 1022.34 1022.72 1023.19 1023.75 1024.37 1025.03 1025.70 1026.36 1026.98 1027.56 1028.09 1028.57 1029.02 1029.43 1029.79 1030.11 1030.36 1030.53 1030.59
1015.35 1015.74 1016.07 1016.33 1016.53 1016.68 1016.79 1016.89 1017.01 1017.18 1017.42 1017.73 1018.12 1018.57 1019.06 1019.54 1019.99 1020.37 1020.67 1020.88 1021.03 1021.13 1021.22 1021.35 1021.55 1021.85 1022.27 1022.78 1023.40 1024.08 1024.80 1025.53 1026.23 1026.90 1027.53 1028.10 1028.63 1029.12 1029.56 1029.95 1030.28 1030.52 1030.66 1030.68
1015.55 1015.84 1016.07 1016.23 1016.36 1016.46 1016.57 1016.70 1016.88 1017.13 1017.46 1017.86 1018.32 1018.80 1019.28 1019.71 1020.07 1020.35 1020.53 1020.62 1020.66 1020.68 1020.72 1020.83 1021.05 1021.38 1021.84 1022.43 1023.11 1023.85 1024.63 1025.41 1026.16 1026.87 1027.53 1028.15 1028.71 1029.22 1029.67 1030.06 1030.37 1030.57 1030.65 1030.58
1015.72 1015.92 1016.04 1016.12 1016.18 1016.24 1016.33 1016.48 1016.70 1017.00 1017.38 1017.82 1018.30 1018.78 1019.22 1019.59 1019.87 1020.04 1020.12 1020.13 1020.11 1020.09 1020.12 1020.26 1020.51 1020.91 1021.44 1022.10 1022.85 1023.66 1024.49 1025.31 1026.10 1026.84 1027.53 1028.16 1028.73 1029.24 1029.68 1030.04 1030.30 1030.43 1030.41 1030.24
1015.85 1015.96 1016.00 1016.00 1015.99 1016.00 1016.06 1016.20 1016.42 1016.73 1017.12 1017.56 1018.01 1018.45 1018.83 1019.13 1019.33 1019.44 1019.46 1019.43 1019.39 1019.38 1019.46 1019.65 1019.98 1020.46 1021.07 1021.80 1022.61 1023.47 1024.34 1025.19 1026.00 1026.76 1027.45 1028.08 1028.64 1029.13 1029.54 1029.84 1030.02 1030.06 1029.94 1029.65
1015.88 1015.92 1015.89 1015.82 1015.74 1015.70 1015.72 1015.83 1016.02 1016.31 1016.66 1017.05 1017.46 1017.84 1018.16 1018.39 1018.54 1018.61 1018.62 1018.60 1018.60 1018.66 1018.81 1019.10 1019.52 1020.09 1020.78 1021.57 1022.43 1023.31 1024.19 1025.05 1025.85 1026.60 1027.27 1027.88 1028.42 1028.87 1029.22 1029.45 1029.55 1029.50 1029.27 1028.88
1015.70 1015.68 1015.59 1015.47 1015.35 1015.27 1015.25 1015.32 1015.47 1015.71 1016.01 1016.35 1016.69 1017.01 1017.28 1017.49 1017.63 1017.71 1017.76 1017.81 1017.89 1018.06 1018.32 1018.72 1019.24 1019.89 1020.64 1021.46 1022.33 1023.21 1024.07 1024.89 1025.66 1026.36 1027.01 1027.57 1028.07 1028.47 1028.76 1028.92 1028.94 1028.80 1028.50 1028.03
1015.18 1015.12 1015.00 1014.85 1014.72 1014.62 1014.59 1014.63 1014.76 1014.96 1015.22 1015.51 1015.82 1016.11 1016.37 1016.58 1016.76 1016.91 1017.05 1017.22 1017.43 1017.73 1018.12 1018.63 1019.24 1019.94 1020.71 1021.53 1022.37 1023.20 1024.00 1024.75 1025.45 1026.10 1026.68 1027.19 1027.63 1027.98 1028.22 1028.33 1028.29 1028.10 1027.74 1027.23
Thickness
5644 5637 5636 5640 5641 5642 5637 5630 5632 5638 5643 5642 5639 5639 5636 5627 5617 5605 5600 5598 5596 5595 5594 5594 5596 5598 5603 5607 5611 5613 5615 5616 5618 5616 5612 5606 5599 5595 5592 5588 5587 5587 5586 5586
5629 5629 5642 5640 5634 5632 5629 5625 5624 5628 5632 5628 5627 5627 5618 5609 5603 5598 5592 5588 5586 5585 5584 5585 5585 5586 5589 5592 5595 5597 5598 5599 5600 5599 5594 5589 5583 5576 5572 5570 5569 5568 5567 5566
5627 5636 5637 5630 5625 5619 5616 5615 5616 5616 5621 5621 5619 5620 5614 5594 5588 5585 5581 5579 5577 5576 5573 5571 5571 5571 5573 5575 5577 5580 5580 5581 5581 5581 5579 5574 5568 5561 5557 5552 5549 5546 5546 5545
5617 5627 5626 5621 5618 5616 5610 5614 5612 5611 5605 5599 5605 5597 5615 5597 5583 5576 5571 5566 5565 5564 5562 5560 5558 5558 5558 5558 5559 5561 5562 5562 5562 5562 5561 5557 5549 5540 5532 5529 5528 5527 5526 5524
5612 5617 5617 5615 5617 5612 5612 5611 5603 5601 5593 5589 5589 5589 5599 5591 5586 5573 5564 5559 5556 5554 5551 5548 5545 5543 5542 5541 5542 5543 5544 5543 5541 5541 5539 5535 5528 5520 5514 5512 5510 5508 5506 5504
5608 5612 5612 5613 5613 5608 5601 5593 5583 5574 5574 5576 5584 5579 5591 5588 5592 5574 5558 5551 5546 5542 5539 5536 5532 5529 5526 5525 5524 5525 5525 5522 5520 5519 5517 5513 5507 5501 5498 5493 5490 5487 5484 5482
5597 5602 5606 5606 5600 5598 5596 5584 5572 5568 5562 5567 5575 5573 5588 5592 5578 5569 5557 5544 5535 5530 5524 5520 5517 5513 5510 5508 5507 5506 5505 5501 5499 5498 5495 5491 5487 5482 5477 5472 5469 5465 5462 5459
5584 5590 5596 5598 5598 5590 5585 5584 5572 5562 5556 5554 5562 5559 5579 5565 5556 5553 5547 5536 5525 5518 5512 5508 5503 5498 5495 5492 5490 5488 5486 5482 5479 5477 5473 5470 5466 5462 5457 5453 5449 5444 5440 5437
5586 5588 5590 5591 5592 5587 5575 5572 5574 5553 5524 5530 5547 5556 5567 5545 5539 5533 5527 5519 5513 5507 5501 5496 5490 5485 5481 5477 5474 5471 5467 5463 5460 5457 5453 5449 5446 5442 5437 5432 5428 5424 5420 5417
5589 5581 5581 5578 5578 5573 5573 5561 5546 5550 5541 5533 5549 5553 5561 5549 5530 5521 5515 5511 5506 5498 5490 5484 5477 5472 5467 5463 5458 5454 5450 5446 5441 5438 5434 5430 5425 5421 5417 5412 5408 5404 5400 5397
5580 5574 5562 5564 5565 5563 5552 5551 5551 5538 5531 5521 5523 5549 5551 5551 5533 5521 5516 5510 5500 5490 5481 5472 5465 5460 5454 5448 5442 5438 5433 5429 5424 5420 5416 5411 5406 5401 5396 5392 5387 5383 5378 5375
5569 5560 5545 5549 5553 5553 5552 5549 5542 5534 5518 5510 5516 5536 5542 5536 5526 5517 5508 5499 5487 5478 5469 5460 5453 5446 5439 5433 5427 5422 5417 5412 5407 5402 5397 5392 5386 5381 5375 5370 5365 5361 5356 5351
5560 5548 5534 5536 5533 5531 5533 5532 5532 5529 5515 5492 5492 5521 5522 5516 5509 5502 5495 5484 5475 5466 5456 5448 5440 5433 5426 5419 5413 5406 5401 5395 5390 5384 5378 5372 5366 5360 5354 5348 5343 5337 5332 5327
5556 5541 5541 5541 5540 5525 5519 5518 5513 5506 5498 5489 5500 5518 5509 5504 5498 5488 5479 5471 5462 5454 5446 5437 5429 5421 5413 5406 5398 5391 5385 5379 5372 5366 5359 5353 5346 5340 5333 5327 5320 5314 5308 5303
5538 5532 5528 5528 5523 5515 5518 5519 5507 5503 5507 5507 5511 5506 5507 5493 5486 5477 5467 5457 5448 5441 5433 5425 5417 5408 5399 5391 5383 5376 5369 5362 5355 5348 5341 5334 5327 5320 5312 5304 5297 5291 5284 5278
5519 5514 5504 5494 5487 5491 5494 5501 5496 5496 5496 5489 5488 5490 5490 5479 5467 5458 5450 5441 5435 5430 5421 5413 5405 5396 5387 5379 5370 5362 5354 5347 5338 5331 5323 5315 5306 5298 5290 5282 5275 5268 5262 5256
5495 5491 5489 5481 5455 5461 5480 5492 5486 5478 5474 5475 5475 5487 5468 5454 5447 5442 5434 5425 5422 5416 5408 5400 5392 5385 5376 5367 5358 5348 5341 5331 5321 5312 5303 5293 5284 5276 5267 5260 5254 5248 5242 5237
5485 5481 5475 5449 5435 5461 5505 5478 5480 5475 5471 5462 5459 5453 5444 5438 5431 5424 5417 5410 5405 5400 5393 5386 5378 5370 5362 5353 5344 5334 5324 5313 5303 5293 5282 5272 5263 5255 5247 5241 5235 5230 5225 5221
5467 5465 5442 5434 5442 5447 5454 5454 5449 5446 5442 5440 5437 5434 5423 5411 5406 5403 5399 5393 5390 5385 5379 5371 5364 5356 5348 5338 5327 5316 5306 5295 5285 5275 5265 5255 5245 5237 5231 5225 5220 5214 5210 5205
5438 5444 5434 5415 5423 5428 5458 5437 5430 5428 5416 5422 5414 5412 5397 5388 5388 5393 5387 5379 5374 5368 5362 5355 5347 5339 5330 5321 5310 5298 5288 5277 5268 5260 5249 5239 5230 5223 5217 5211 5205 5200 5195 5191
5416 5414 5422 5412 5416 5419 5426 5412 5412 5405 5415 5406 5394 5390 5380 5379 5383 5381 5375 5367 5360 5353 5346 5339 5330 5322 5316 5305 5292 5282 5272 5264 5255 5243 5233 5224 5216 5210 5204 5197 5191 5185 5181 5177
5418 5406 5400 5394 5395 5416 5403 5393 5397 5400 5394 5384 5378 5374 5369 5368 5367 5362 5356 5350 5344 5336 5330 5322 5312 5306 5300 5288 5276 5268 5260 5252 5238 5228 5218 5210 5202 5196 5190 5183 5177 5171 5165 5161
5403 5414 5407 5406 5414 5405 5392 5391 5387 5381 5376 5371 5367 5363 5358 5355 5350 5346 5340 5334 5329 5323 5317 5308 5297 5291 5283 5272 5263 5256 5248 5234 5223 5213 5204 5196 5189 5182 5177 5170 5164 5157 5151 5146
5377 5382 5379 5373 5376 5377 5368 5367 5365 5361 5362 5361 5357 5352 5344 5338 5335 5331 5326 5321 5314 5308 5300 5292 5281 5273 5267 5257 5249 5243 5232 5220 5209 5199 5191 5183 5176 5170 5164 5158 5153 5146 5139 5134
5379 5366 5360 5357 5361 5356 5351 5350 5349 5346 5345 5344 5340 5335 5329 5323 5321 5317 5312 5307 5300 5295 5288 5277 5268 5263 5258 5246 5234 5225 5216 5206 5195 5186 5178 5171 5165 5159 5152 5147 5141 5136 5132 5125
5370 5363 5353 5350 5353 5345 5347 5347 5342 5335 5333 5330 5325 5321 5316 5309 5306 5302 5298 5294 5287 5281 5273 5264 5257 5250 5242 5230 5219 5208 5200 5191 5182 5174 5166 5159 5153 5146 5141 5136 5131 5127 5126 5124